2023/10/27 00:00:00, 0.2, 9.8
2023/10/27 00:10:00, 0.3, 9.7
2023/10/27 00:20:00, 0.3,10.0
2023/10/27 00:30:00, 0.3, 9.8
2023/10/27 00:40:00, 0.3, 9.9
2023/10/27 00:50:00, 0.3,10.1
2023/10/27 01:00:00, 0.3,10.2
2023/10/27 01:10:00, 0.4,10.4
2023/10/27 01:20:00, 0.0,10.7
2023/10/27 01:30:00, 0.0,10.6
2023/10/27 01:40:00, 0.1,10.5
2023/10/27 01:50:00, 0.9,10.6
2023/10/27 02:00:00, 1.3,10.9
2023/10/27 02:10:00, 1.5,10.9
2023/10/27 02:20:00, 1.4,10.4
2023/10/27 02:30:00, 1.2,10.5
2023/10/27 02:40:00, 1.2,10.2
2023/10/27 02:50:00, 1.2,10.5
2023/10/27 03:00:00, 1.1,10.5
2023/10/27 03:10:00, 1.2,10.2
2023/10/27 03:20:00, 1.2,10.4
2023/10/27 03:30:00, 1.2,10.5
2023/10/27 03:40:00, 1.3,10.2
2023/10/27 03:50:00, 1.2, 9.9
2023/10/27 04:00:00, 1.1, 9.3
2023/10/27 04:10:00, 1.0, 9.3
2023/10/27 04:20:00, 1.0, 8.9
2023/10/27 04:30:00, 1.2, 9.1
2023/10/27 04:40:00, 1.3, 9.0
2023/10/27 04:50:00, 1.4, 8.6
2023/10/27 05:00:00, 1.3, 8.3
2023/10/27 05:10:00, 1.3, 8.5
2023/10/27 05:20:00, 1.2, 8.5
2023/10/27 05:30:00, 1.1, 8.4
2023/10/27 05:40:00, 1.2, 8.1
2023/10/27 05:50:00, 1.1, 8.3
2023/10/27 06:00:00, 1.1, 8.0
2023/10/27 06:10:00, 0.9, 8.0
2023/10/27 06:20:00, 1.0, 8.4
2023/10/27 06:30:00, 0.9, 8.5
2023/10/27 06:40:00, 0.9, 8.5
2023/10/27 06:50:00, 1.5, 8.9
2023/10/27 07:00:00, 2.4, 9.2
2023/10/27 07:10:00, 2.7, 9.0
2023/10/27 07:20:00, 2.7, 9.3
2023/10/27 07:30:00, 2.8, 9.5
2023/10/27 07:40:00, 2.5, 9.3
2023/10/27 07:50:00, 2.4, 9.9
2023/10/27 08:00:00, 2.9,10.1
2023/10/27 08:10:00,257.5,10.6
2023/10/27 08:20:00,320.0,11.3
2023/10/27 08:30:00,137.2,11.7
2023/10/27 08:40:00, 1.6,12.3
2023/10/27 08:50:00, 1.8,12.8
2023/10/27 09:00:00, 2.0,13.1
2023/10/27 09:10:00, 2.3,13.3
2023/10/27 09:20:00, 2.5,13.7
2023/10/27 09:30:00,29.5,14.4
2023/10/27 09:40:00,257.3,14.8
2023/10/27 09:50:00,320.2,15.3
2023/10/27 10:00:00,72.3,15.7
2023/10/27 10:10:00, 0.6,15.8
2023/10/27 10:20:00, 0.2,16.0
2023/10/27 10:30:00, 0.3,15.9
2023/10/27 10:40:00, 0.7,15.7
2023/10/27 10:50:00, 0.6,15.7
2023/10/27 11:00:00, 0.4,15.4
2023/10/27 11:10:00, 0.4,15.7
2023/10/27 11:20:00, 0.4,15.5
2023/10/27 11:30:00, 0.5,15.8
2023/10/27 11:40:00, 0.8,16.1
2023/10/27 11:50:00, 0.9,15.9
2023/10/27 12:00:00, 0.8,15.8
2023/10/27 12:10:00, 0.3,15.8
2023/10/27 12:20:00, 0.1,15.9
2023/10/27 12:30:00, 0.6,15.2
2023/10/27 12:40:00, 0.3,14.8
2023/10/27 12:50:00, 0.6,14.8
2023/10/27 13:00:00, 0.2,14.4
2023/10/27 13:10:00, 0.4,14.2
2023/10/27 13:20:00, 0.8,14.6
2023/10/27 13:30:00, 0.8,15.9
2023/10/27 13:40:00, 0.7,15.9
2023/10/27 13:50:00, 0.7,16.0
2023/10/27 14:00:00, 0.5,15.7
2023/10/27 14:10:00, 0.2,15.6
2023/10/27 14:20:00, 0.6,15.1
2023/10/27 14:30:00, 0.2,15.2
2023/10/27 14:40:00, 0.0,14.8
2023/10/27 14:50:00, 0.1,14.7
2023/10/27 15:00:00, 0.1,14.5
2023/10/27 15:10:00, 0.2,14.2
2023/10/27 15:20:00, 0.1,14.3
2023/10/27 15:30:00, 0.1,14.5
2023/10/27 15:40:00, 0.1,14.5
2023/10/27 15:50:00, 0.1,14.5
2023/10/27 16:00:00, 0.1,14.4
2023/10/27 16:10:00, 0.2,14.2
2023/10/27 16:20:00, 0.3,13.9
2023/10/27 16:30:00, 0.3,13.5
2023/10/27 16:40:00, 0.3,13.1
2023/10/27 16:50:00, 0.3,12.2
2023/10/27 17:00:00, 0.3,12.0
2023/10/27 17:10:00, 0.3,11.9
2023/10/27 17:20:00, 0.3,11.3
2023/10/27 17:30:00, 0.3,10.9
2023/10/27 17:40:00, 0.3,10.7
2023/10/27 17:50:00, 0.2,10.2
2023/10/27 18:00:00, 0.3,10.2
2023/10/27 18:10:00, 0.4,10.4
2023/10/27 18:20:00, 0.3,10.2
2023/10/27 18:30:00, 0.4,10.4
2023/10/27 18:40:00, 0.3,10.5
2023/10/27 18:50:00, 0.2,10.8
2023/10/27 19:00:00, 0.3,10.6
2023/10/27 19:10:00, 0.3,10.4
2023/10/27 19:20:00, 0.2,10.8
2023/10/27 19:30:00, 0.2,10.3
2023/10/27 19:40:00, 0.1,10.0
2023/10/27 19:50:00, 0.3, 9.6
2023/10/27 20:00:00, 0.3, 9.6
2023/10/27 20:10:00, 0.3, 9.7
2023/10/27 20:20:00, 0.3, 9.3
2023/10/27 20:30:00, 0.3, 8.9
2023/10/27 20:40:00, 0.3, 8.8
2023/10/27 20:50:00, 0.3, 8.3
2023/10/27 21:00:00, 0.3, 8.4
2023/10/27 21:10:00, 0.3, 8.4
2023/10/27 21:20:00, 0.4, 8.4
2023/10/27 21:30:00, 0.4, 8.3
2023/10/27 21:40:00, 0.4, 8.2
2023/10/27 21:50:00, 0.4, 8.2
2023/10/27 22:00:00, 0.4, 8.1
2023/10/27 22:10:00, 0.3, 8.1
2023/10/27 22:20:00, 0.3, 8.1
2023/10/27 22:30:00, 0.3, 8.2
2023/10/27 22:40:00, 0.3, 9.0
2023/10/27 22:50:00, 0.3, 9.0
2023/10/27 23:00:00, 0.5, 9.3
2023/10/27 23:10:00, 1.2, 9.4
2023/10/27 23:20:00, 1.4, 9.5
2023/10/27 23:30:00, 1.4, 9.6
2023/10/27 23:40:00, 1.4, 9.6
2023/10/27 23:50:00, 1.5, 9.9
